Regional Weather Roundup
Issued by NWS Upton, NY

Home | Current Version | Previous Version | Text Only | Print | Product List | Glossary On
Versions: 1 2 3 4 5 6 7 8 9 10 11 12 13 14 15 16 17 18 19 20 21 22 23 24 25 26 27 28 29 30 31 32 33 34 35 36 37 38 39 40 41 42 43 44 45 46 47 48 49 50
000
ASUS41 KOKX 260808
RWROKX

REGIONAL WEATHER ROUNDUP
NATIONAL WEATHER SERVICE NEW YORK NY
400 AM EDT MON SEP 26 2016

NOTE: "FAIR" INDICATES FEW OR NO CLOUDS BELOW 12,000 FEET WITH NO
SIGNIFICANT WEATHER AND/OR OBSTRUCTIONS TO VISIBILITY.

NYZ071-072-176-178-NJZ106-104-260900-
NEW YORK CITY METRO AREA

CITY           SKY/WX    TMP DP  RH WIND       PRES   REMARKS
Central Park   CLEAR     58  39  49 NE5       30.21S
LaGuardia APRT CLEAR     60  43  53 NE3       30.18R
Kennedy INTL   PTCLDY    53  44  71 NE5       30.19S
Newark/Liberty PTCLDY    53  44  71 N7        30.18S
Bronx Bot Gard   N/A     54  37  54 E1        30.19F
Wall St Helipt SUNNY     64  50  59 E6        30.18F
Teterboro      CLEAR     50  43  77 N3        30.18S
$$

NYZ177-179-078>081-260900-
LONG ISLAND NEW YORK

CITY           SKY/WX    TMP DP  RH WIND       PRES   REMARKS
Farmingdale    CLEAR     49  43  80 N5        30.19S
MacArthur/ISP  CLEAR     49  41  74 NE8       30.18S
Shirley        CLEAR     47  43  86 CALM      30.19S
Riverhead      NOT AVBL
Westhampton    CLEAR     48  39  71 E5        30.20F
Southampton      N/A     52  43  71 NE2       30.16S
Bridgehampton    N/A     48  43  81 CALM      30.05S
East Hampton   FAIR      41  39  93 CALM      30.18F
Montauk          N/A     57  41  55 NE6       30.20S
$$

NYZ052-065-067-260900-
HUDSON VALLEY

CITY           SKY/WX    TMP DP  RH WIND       PRES   REMARKS
White Plains   CLEAR     51  38  60 NW3       30.18S
Newburgh       CLEAR     43  43 100 CALM      30.21S
Montgomery     PTCLDY    38  36  92 CALM      30.20S
Poughkeepsie   CLEAR     37  36  96 CALM      30.20S
Albany         PTCLDY    40  37  89 CALM      30.20F
$$

NJZ001-105-106-008-010-013-015-019>022-104-260900-
NEW JERSEY

CITY           SKY/WX    TMP DP  RH WIND       PRES   REMARKS
Newark/Liberty PTCLDY    53  44  71 N7        30.18S
Teterboro      CLEAR     50  43  77 N3        30.18S
Caldwell       CLEAR     47  44  90 CALM      30.19F
Morristown     CLEAR     39  39 100 CALM      30.18F FOG
Somerville     CLEAR     42  39  89 NW5       30.16F
Linden         NOT AVBL
Sussex         CLEAR     39  37  92 CALM      30.19F
Abdover          N/A     43  42  97 CALM      30.19S
Trenton        CLEAR     49  45  86 N3        30.16F
Millville      CLEAR     48  48 100 CALM      30.17S
Atlantic City  PTCLDY    48  45  89 CALM      30.17S
Wrightstown    CLEAR     47  46  94 SE1       30.14F
Toms River     PTCLDY    42  40  92 CALM      30.18S
Belmar         PTCLDY    50  45  83 CALM      30.18F
$$

PAZ047>061-062-071-260900-
EASTERN PENNSYLVANIA

CITY           SKY/WX    TMP DP  RH WIND       PRES   REMARKS
Philadelphia   PTCLDY    55  47  74 CALM      30.17S
Allentown      CLEAR     44  40  85 CALM      30.17F
Scranton       CLEAR     46  38  73 NE7       30.16F
$$

CTZ002-004>006-009-010-012-RIZ004-006-007-MAZ004-011-015-260900-
SOUTHERN NEW ENGLAND
 IN CT

CITY           SKY/WX    TMP DP  RH WIND       PRES   REMARKS
Bradley INTL   CLEAR     41  38  89 CALM      30.21F
Hartford       CLEAR     44  42  93 CALM      30.21F
Danbury        CLEAR     38  36  92 CALM      30.21S
Wtrbury/Oxford   N/A     46  36  66 E5        30.21S
Bridgeport     CLEAR     52  40  63 NE7       30.20S
Meriden        CLEAR     44  39  82 NW3       30.21S
New Haven      CLEAR     46  40  79 N7        30.20S
Chester        FAIR      46  37  71 NW6       30.20S
Groton         CLEAR     47  40  76 N7        30.19F
Wilimantic     CLOUDY    39  39 100 CALM      30.22S

 IN RI

CITY           SKY/WX    TMP DP  RH WIND       PRES   REMARKS
Providence     CLEAR     45  37  73 W6        30.20F
Block Island   CLEAR     54  43  66 N7        30.19S
Westerly       CLEAR     42  37  82 N5        30.20F
 IN MA

CITY           SKY/WX    TMP DP  RH WIND       PRES   REMARKS
Boston         CLEAR     50  39  66 W6        30.19F
Worcester      CLEAR     47  33  58 NW3       30.19F
Westfield      PTCLDY    37  36  96 CALM      30.21F
Provincetown   CLEAR     55  39  54 N8        30.18F
Nantucket      PTCLDY    50  41  71 N6        30.16F
$$

ANZ330-335-338-340-345-350-353-355-260900-
COASTAL MARINE OBSERVATIONS


STATION/POSITION TIME  SKY/WX   TEMP    WIND        PRES    VSBY  WAVE
                                AIR SEA DIR/SP/G                  HT/PER
                 (UTC)          (F)     (DEG/KT/KT) (MB)    (MI)  (FT/S)
NY HARB ENTRANCE 0750            65 71   80/  6/ 10 1021.5          2/ 9
20S FIRE ISLAND  0750            64 69   70/  8/ 10 1021.3          2/ 9
GREAT SOUTH BAY  0730            59 70   40/  6/  6   N/A
23 SSW MONTAUK P 0750            62 68   60/ 10/ 12 1022.1          2/10
15 E BARNEGAT LI NOT AVBL
HUDSON CANYON    0650            66 69              1021.4          2/10
KINGS POINT      0736            58 72              1021.8
EXECUTION ROCKS  0745            60     350/  4/  6   N/A
CENTRAL LI SOUND 0730            60 72   70/ 14/ 17   N/A           1/ 3
EASTERN LI SOUND NOT AVBL
ROBBINS REEF     0742            63     100/  8/  9 1022.0
$$


>>>>>>>>>>>>>>>>>>>>>>>>>>>> KEY <<<<<<<<<<<<<<<<<<<<<<<<<<<
>                                                          <
>     SKY/WX - Sky Condition/Present Weather               <
>     TMP    - Temperature in Fahrenheit                   <
>     DP     - Dew Point in Fahrenheit                     <
>     RH     - Relative Humidity in Percent                <
>     WIND   - Direction (from) and Speed in MPH           <
>     PRES   - Mean Sea Level Pressure (inches of Hg)      <
>     WCI    - Wind Chill Index                            <
>     VSB    - VISIBILITY IN MILES                         <
>     HX     - HEAT INDEX                                  <
>     TC     - TEMPERATURE IN CELSIUS                      <
>     VRB    - VARIABLE WIND DIRECTION                     <
>                                                          <
>>>>>>>>>>>>>>>>>>>>>>>>>>>> KEY <<<<<<<<<<<<<<<<<<<<<<<<<<<



USA.gov is the U.S. government's official web portal to all federal, state and local government web resources and services.